This is the latest recevied weather packets stored in our database for station/object SQ3MKP-13. If no packets are shown the sender has not sent any weather packets the latest 10 day(s).
| Time | Temp. | Humidity | Pressure | Rain* | Wind** | Luminosity | Snow |
|---|---|---|---|---|---|---|---|
| 1788516404 | 21.67° C | 66% | 1000.5 hPa | - | - | 356 W/m² | - |
| 1788516103 | 21.67° C | 66% | 1000.7 hPa | - | - | 368 W/m² | - |
| 1788515801 | 21.67° C | 67% | 1000.8 hPa | - | - | 325 W/m² | - |
| 1788515501 | 21.11° C | 67% | 1001 hPa | - | - | 328 W/m² | - |
| 1788515200 | 21.11° C | 68% | 1001.1 hPa | - | - | 284 W/m² | - |
| 1788514899 | 21.11° C | 69% | 1001.3 hPa | - | - | 294 W/m² | - |
| 1788514598 | 20.56° C | 70% | 1001.3 hPa | - | - | 201 W/m² | - |
| 1788514296 | 20.56° C | 71% | 1001.4 hPa | - | - | 227 W/m² | - |
| 1788513995 | 20.56° C | 71% | 1001.5 hPa | - | - | 196 W/m² | - |
| 1788513694 | 20.56° C | 70% | 1001.6 hPa | - | - | 213 W/m² | - |
| 1788513393 | 20.56° C | 71% | 1001.6 hPa | - | - | 279 W/m² | - |
| 1788513092 | 20° C | 72% | 1001.8 hPa | - | - | 279 W/m² | - |
| 1788512791 | 20° C | 72% | 1001.9 hPa | - | - | 199 W/m² | - |
| 1788512189 | 20° C | 73% | 1002 hPa | - | - | 132 W/m² | - |
| 1788511889 | 20° C | 73% | 1002 hPa | - | - | 159 W/m² | - |
| 1788511587 | 20° C | 73% | 1001.9 hPa | - | - | 157 W/m² | - |
| 1788511286 | 20° C | 72% | 1002 hPa | - | - | 187 W/m² | - |
| 1788510985 | 20° C | 74% | 1002 hPa | - | - | 274 W/m² | - |
| 1788510685 | 20° C | 74% | 1002.2 hPa | - | - | 195 W/m² | - |
| 1788510383 | 20° C | 74% | 1002.2 hPa | - | - | 141 W/m² | - |
| 1788510083 | 20° C | 73% | 1002.3 hPa | - | - | 245 W/m² | - |
| 1788509781 | 19.44° C | 73% | 1002.4 hPa | - | - | 235 W/m² | - |
| 1788509480 | 19.44° C | 73% | 1002.3 hPa | - | - | 241 W/m² | - |
| 1788509179 | 19.44° C | 73% | 1002.3 hPa | - | - | 171 W/m² | - |
| 1788508878 | 19.44° C | 73% | 1002.3 hPa | - | - | 192 W/m² | - |
* Rain since midnight (hover to see other rain measurements)
** Current wind speed in m/s (hover to see current wind gust speed)